Wetterstats.de || Aktuelle Messwerte || Aktuelle Wetterkarten NEU! || Radar / Satellit NEU! || Wetterarchiv || Langzeitwerte NEU! || Klim. Kenntage || Met. Ereignisse || Agrarwerte || Echtzeitwerte

Monatsübersicht für Mai 2020 Diagramm
 
Wetter Information zur Wetteranzeige
Zeitraffer
Tageslänge (hh:mm)
Höchsttemperatur in °C
Uhrzeit
Tiefsttemperatur in °C
Uhrzeit
Luftfeuchte (max., in %)
Uhrzeit
Luftfeuchte (min., in %)
Uhrzeit
Luftdruck (max., in hPa)
Uhrzeit
Luftdruck (min., in hPa)
Uhrzeit
Luftdruck (Ø, in hPa)
Regenrate (max, mm/h)
Uhrzeit
Niederschlag in mm
Verdunstung in mm
Solar in W/m² (Ø)
Solar in W/m² (max.)
UV-Index (max.)
Sonnenscheindauer (hh:mm)
Windrichtung (Ø)
Windstärke (Ø in km/h)
Windstärke (Ø in bft)
Windböe (max., in km/h)
Uhrzeit
Windböe (max., in bft)
Uhrzeit
Taupunkt (max., in °C)
Uhrzeit
Taupunkt (min., in °C)
Uhrzeit
Windchill (min., in °C)
Uhrzeit
Gewitterindex (max.)
Uhrzeit
Waldbrandindex (max.)
Uhrzeit
Graslandfeuerindex (max.)
Uhrzeit
Staubsturm-Index (max.)
Uhrzeit
01
Zeitraffer
15:04
17.9
16:35 Uhr
10.7
05:55 Uhr

85
01:05 Uhr
42
16:30 Uhr
1002.3
09:50 Uhr

1000.1
18:50 Uhr
1001.5
2,400
00:50 Uhr
0,200
1.448
145
877
10:55 Uhr
2.8
13:55 Uhr

01:14:00
0,9
0
17,7
00:45 Uhr

3
10.3
01:05 Uhr
4.7
16:30 Uhr
10.7
05:55 Uhr
2
00:00 Uhr
5.9
00:00 Uhr
5.9
00:00 Uhr
1.8
01:00 Uhr
02
Zeitraffer
15:07
17.3
11:15 Uhr
8.2
05:55 Uhr

87
04:45 Uhr
50
13:45 Uhr
1010.0
23:45 Uhr

1001.8
00:00 Uhr
1005.0
2,400
15:00 Uhr
0,600
1.829
217
844
11:20 Uhr
3.0
13:00 Uhr

04:41:00
0,3
0
11,3
11:20 Uhr

2
9.7
15:40 Uhr
5.9
13:55 Uhr
8.2
05:55 Uhr
0
00:00 Uhr
5.9
00:00 Uhr
5.9
00:00 Uhr
1.3
11:20 Uhr
03
Zeitraffer
15:11
15.6
15:20 Uhr
7.1
05:30 Uhr

89
05:35 Uhr
51
14:10 Uhr
1017.8
23:50 Uhr

1010.1
00:00 Uhr
1015.4
0,000
00:00 Uhr
0,000
1.118
121
908
12:35 Uhr
3.4
12:35 Uhr

00:28:00
0,3
0
9,7
12:25 Uhr

2
7.6
10:20 Uhr
4.7
14:15 Uhr
7.1
05:30 Uhr
0
00:00 Uhr
5.9
00:00 Uhr
5.9
00:00 Uhr
1.2
09:10 Uhr
04
Zeitraffer
15:14
11.8
18:05 Uhr
6.8
23:50 Uhr

90
13:40 Uhr
70
21:35 Uhr
1017.8
00:10 Uhr

1016.5
16:40 Uhr
1017.1
2,400
11:20 Uhr
0,600
0.610
61
161
14:10 Uhr
0.8
14:05 Uhr

00:00:00
0,2
0
11,3
18:10 Uhr

2
9.4
14:05 Uhr
3.4
23:00 Uhr
6.8
23:50 Uhr
0
00:00 Uhr
5.9
00:00 Uhr
5.9
00:00 Uhr
1.4
17:45 Uhr
05
Zeitraffer
15:17
13.3
12:00 Uhr
3.9
04:50 Uhr

86
04:30 Uhr
44
11:55 Uhr
1021.0
23:55 Uhr

1017.5
00:00 Uhr
1018.7
2,400
14:20 Uhr
0,800
1.854
228
874
11:40 Uhr
3.0
12:55 Uhr

05:15:00
1,1
0
20,9
14:40 Uhr

4
5.6
17:40 Uhr
0.6
11:45 Uhr
3.9
04:50 Uhr
0
00:00 Uhr
5.9
00:00 Uhr
5.9
00:00 Uhr
2.1
14:20 Uhr
06
Zeitraffer
15:21
17.1
13:20 Uhr
5.4
00:30 Uhr

86
00:30 Uhr
34
17:20 Uhr
1022.8
09:20 Uhr

1020.3
19:40 Uhr
1021.6
0,000
00:00 Uhr
0,000
2.489
276
751
12:50 Uhr
3.3
12:50 Uhr

05:25:00
1,0
0
14,5
11:10 Uhr

3
6.3
09:55 Uhr
-0.2
19:40 Uhr
5.4
00:30 Uhr
0
00:00 Uhr
5.9
08:20 Uhr
5.9
00:00 Uhr
1.9
11:10 Uhr
07
Zeitraffer
15:25
16.2
17:55 Uhr
6.8
04:05 Uhr

80
23:45 Uhr
52
00:00 Uhr
1023.3
12:15 Uhr

1020.6
23:40 Uhr
1021.9
0,000
00:00 Uhr
0,000
0.838
78
798
14:10 Uhr
3.3
13:50 Uhr

00:03:00
0,3
0
11,3
14:55 Uhr

2
7.3
22:05 Uhr
1.1
00:00 Uhr
6.8
04:05 Uhr
0
00:00 Uhr
5.9
00:00 Uhr
5.9
00:00 Uhr
1.3
14:55 Uhr
08
Zeitraffer
15:28
22.1
12:20 Uhr
7.2
05:15 Uhr

89
04:45 Uhr
23
16:15 Uhr
1020.7
00:15 Uhr

1016.3
18:05 Uhr
1018.2
0,000
00:00 Uhr
0,000
2.210
280
749
12:20 Uhr
3.4
12:10 Uhr

07:21:00
0,4
0
9,7
13:15 Uhr

2
8.2
08:40 Uhr
-1.0
16:15 Uhr
7.2
05:15 Uhr
0
00:00 Uhr
5.9
00:00 Uhr
5.9
00:00 Uhr
1.4
13:45 Uhr
09
Zeitraffer
15:31
22.0
12:20 Uhr
8.6
05:30 Uhr

76
05:35 Uhr
34
18:05 Uhr
1017.5
00:15 Uhr

1012.0
23:35 Uhr
1015.4
0,000
00:00 Uhr
0,000
3.150
292
742
12:50 Uhr
3.6
12:50 Uhr

07:51:00
1,9
0
19,3
13:55 Uhr

3
8.4
12:15 Uhr
3.0
01:20 Uhr
8.6
05:30 Uhr
0
00:00 Uhr
5.9
00:00 Uhr
5.9
00:00 Uhr
2.2
13:55 Uhr
10
Zeitraffer
15:35
24.3
15:05 Uhr
11.4
05:20 Uhr

90
23:00 Uhr
40
10:45 Uhr
1012.0
00:00 Uhr

1003.2
17:35 Uhr
1006.7
2,400
18:25 Uhr
0,600
2.642
247
769
12:25 Uhr
3.4
12:25 Uhr

05:50:00
1,7
0
19,3
12:30 Uhr

3
16.1
19:05 Uhr
6.9
08:30 Uhr
11.4
05:20 Uhr
9
21:35 Uhr
5.9
00:00 Uhr
5.9
00:00 Uhr
2.1
09:40 Uhr
11
Zeitraffer
15:38
16.8
00:00 Uhr
3.8
23:55 Uhr

91
12:50 Uhr
69
07:15 Uhr
1012.2
23:35 Uhr

1003.1
00:30 Uhr
1007.1
2,400
03:50 Uhr
5,800
0.457
38
92
13:10 Uhr
0.7
13:05 Uhr

00:08:00
2,6
1
24,1
17:00 Uhr

4
15.0
00:00 Uhr
-0.3
23:45 Uhr
1.6
16:55 Uhr
9
00:00 Uhr
5.9
00:00 Uhr
5.9
00:00 Uhr
2.1
10:30 Uhr
12
Zeitraffer
15:42
12.7
11:05 Uhr
1.3
04:35 Uhr

83
02:25 Uhr
46
16:55 Uhr
1016.9
12:15 Uhr

1012.3
00:00 Uhr
1015.3
0,000
00:00 Uhr
0,000
1.601
212
844
11:10 Uhr
3.1
11:10 Uhr

04:27:00
0,4
0
8,0
10:25 Uhr

2
4.4
10:05 Uhr
-1.7
04:20 Uhr
1.3
04:35 Uhr
0
00:00 Uhr
0.4
12:00 Uhr
3.9
12:00 Uhr
0.0
00:00 Uhr
13
Zeitraffer
15:45
15.6
12:00 Uhr
7.4
01:45 Uhr

80
06:40 Uhr
39
17:20 Uhr
1014.5
00:20 Uhr

1011.0
19:05 Uhr
1012.9
0,000
00:00 Uhr
0,000
3.606
195
907
12:20 Uhr
3.5
12:15 Uhr

02:40:00
1,2
0
17,7
21:25 Uhr

3
5.0
08:40 Uhr
0.5
17:50 Uhr
7.3
23:30 Uhr
0
00:00 Uhr
2.7
16:15 Uhr
5.9
12:30 Uhr
1.2
22:25 Uhr
14
Zeitraffer
15:48
14.5
15:20 Uhr
5.8
05:55 Uhr

85
03:55 Uhr
36
15:40 Uhr
1020.0
23:45 Uhr

1012.5
00:00 Uhr
1016.9
0,000
00:00 Uhr
0,000
1.727
187
937
12:35 Uhr
3.8
13:20 Uhr

02:35:00
1,7
0
17,7
10:00 Uhr

3
5.2
07:40 Uhr
-0.5
15:40 Uhr
5.3
07:30 Uhr
0
00:00 Uhr
3.5
14:00 Uhr
5.9
08:40 Uhr
1.7
16:40 Uhr
15
Zeitraffer
15:51
16.6
13:15 Uhr
2.6
05:20 Uhr

83
04:50 Uhr
36
13:55 Uhr
1020.4
23:30 Uhr

1017.9
13:35 Uhr
1018.9
0,000
00:00 Uhr
0,000
2.337
321
900
12:50 Uhr
3.9
12:45 Uhr

07:00:00
0,9
0
11,3
11:40 Uhr

2
4.4
20:00 Uhr
-0.1
04:45 Uhr
2.6
05:20 Uhr
0
00:00 Uhr
5.7
14:00 Uhr
5.9
00:00 Uhr
1.5
11:45 Uhr


 
Wetter Information zur Wetteranzeige
Zeitraffer
Tageslänge (hh:mm)
Höchsttemperatur in °C
Uhrzeit
Tiefsttemperatur in °C
Uhrzeit
Luftfeuchte (max., in %)
Uhrzeit
Luftfeuchte (min., in %)
Uhrzeit
Luftdruck (max., in hPa)
Uhrzeit
Luftdruck (min., in hPa)
Uhrzeit
Luftdruck (Ø, in hPa)
Regenrate (max, mm/h)
Uhrzeit
Niederschlag in mm
Verdunstung in mm
Solar in W/m² (Ø)
Solar in W/m² (max.)
UV-Index (max.)
Sonnenscheindauer (hh:mm)
Windrichtung (Ø)
Windstärke (Ø in km/h)
Windstärke (Ø in bft)
Windböe (max., in km/h)
Uhrzeit
Windböe (max., in bft)
Uhrzeit
Taupunkt (max., in °C)
Uhrzeit
Taupunkt (min., in °C)
Uhrzeit
Windchill (min., in °C)
Uhrzeit
Gewitterindex (max.)
Uhrzeit
Waldbrandindex (max.)
Uhrzeit
Graslandfeuerindex (max.)
Uhrzeit
Staubsturm-Index (max.)
Uhrzeit
16
Zeitraffer
15:54
18.2
13:25 Uhr
8.4
04:00 Uhr

73
04:00 Uhr
37
13:30 Uhr
1021.7
09:35 Uhr

1019.1
23:10 Uhr
1020.6
0,000
00:00 Uhr
0,000
2.362
250
997
13:15 Uhr
4.0
12:40 Uhr

05:30:00
0,7
0
9,7
10:50 Uhr

2
5.4
07:45 Uhr
2.7
14:50 Uhr
8.4
04:00 Uhr
0
00:00 Uhr
5.7
13:20 Uhr
5.9
00:00 Uhr
1.4
10:50 Uhr
17
Zeitraffer
15:57
19.5
13:30 Uhr
10.2
05:25 Uhr

81
05:10 Uhr
37
14:10 Uhr
1022.2
11:50 Uhr

1018.5
01:40 Uhr
1020.6
0,000
00:00 Uhr
0,000
2.845
304
911
12:05 Uhr
3.8
12:50 Uhr

06:44:00
0,7
0
9,7
11:20 Uhr

2
7.3
05:10 Uhr
3.5
20:15 Uhr
10.2
05:25 Uhr
0
00:00 Uhr
5.9
14:20 Uhr
5.9
00:00 Uhr
1.4
13:55 Uhr
18
Zeitraffer
16:00
22.2
16:10 Uhr
12.4
03:10 Uhr

66
23:25 Uhr
40
15:55 Uhr
1022.3
09:30 Uhr

1018.9
19:55 Uhr
1020.6
0,000
00:00 Uhr
0,000
1.930
170
567
13:20 Uhr
3.1
13:15 Uhr

01:22:00
0,4
0
11,3
15:50 Uhr

2
9.2
22:45 Uhr
4.4
00:05 Uhr
12.4
03:10 Uhr
2
22:00 Uhr
5.8
14:20 Uhr
5.9
00:00 Uhr
1.4
15:50 Uhr
19
Zeitraffer
16:03
20.6
15:40 Uhr
12.7
23:50 Uhr

80
23:40 Uhr
50
17:10 Uhr
1021.3
23:50 Uhr

1018.9
04:40 Uhr
1019.5
0,000
00:00 Uhr
0,000
1.549
136
778
13:40 Uhr
4.5
11:55 Uhr

00:34:00
0,7
0
14,5
18:25 Uhr

3
11.6
11:40 Uhr
8.8
01:45 Uhr
12.7
23:50 Uhr
2
00:00 Uhr
5.4
16:05 Uhr
5.9
00:00 Uhr
1.5
15:55 Uhr
20
Zeitraffer
16:06
21.2
13:05 Uhr
10.7
02:45 Uhr

85
01:50 Uhr
34
16:00 Uhr
1024.1
23:45 Uhr

1021.2
02:35 Uhr
1022.0
0,000
00:00 Uhr
0,000
2.997
291
827
13:25 Uhr
4.2
13:05 Uhr

06:16:00
1,6
0
17,7
17:40 Uhr

3
9.4
00:00 Uhr
2.6
22:00 Uhr
10.7
02:45 Uhr
2
00:00 Uhr
5.7
14:05 Uhr
5.9
00:00 Uhr
1.9
15:10 Uhr
21
Zeitraffer
16:09
20.1
15:10 Uhr
8.3
05:10 Uhr

79
04:55 Uhr
31
17:15 Uhr
1025.5
10:30 Uhr

1023.1
17:50 Uhr
1024.1
0,000
00:00 Uhr
0,000
3.124
284
737
12:45 Uhr
3.9
13:00 Uhr

08:23:00
2,2
1
19,3
12:15 Uhr

3
7.6
08:20 Uhr
2.1
17:15 Uhr
8.3
05:10 Uhr
0
00:00 Uhr
5.9
15:35 Uhr
5.9
00:00 Uhr
2.2
16:35 Uhr
22
Zeitraffer
16:11
22.6
15:35 Uhr
10.7
05:15 Uhr

67
23:00 Uhr
32
11:15 Uhr
1023.9
00:15 Uhr

1019.0
20:05 Uhr
1021.6
2,400
22:10 Uhr
0,400
3.175
268
800
12:20 Uhr
4.0
12:20 Uhr

06:20:00
2,5
1
25,7
11:20 Uhr

4
9.8
22:25 Uhr
2.5
00:10 Uhr
10.7
05:15 Uhr
2
22:05 Uhr
5.9
00:00 Uhr
5.9
00:00 Uhr
2.3
11:45 Uhr
23
Zeitraffer
16:14
21.2
14:05 Uhr
12.2
03:45 Uhr

90
05:25 Uhr
44
15:10 Uhr
1023.4
23:25 Uhr

1018.1
03:25 Uhr
1019.4
2,400
01:45 Uhr
1,400
1.473
138
631
14:00 Uhr
4.0
13:40 Uhr

00:35:00
1,0
0
19,3
01:05 Uhr

3
14.8
09:20 Uhr
6.9
19:25 Uhr
12.2
03:45 Uhr
6
09:05 Uhr
5.8
00:00 Uhr
5.9
00:00 Uhr
2.1
01:05 Uhr
24
Zeitraffer
16:17
19.0
11:45 Uhr
9.7
03:30 Uhr

93
23:05 Uhr
53
11:50 Uhr
1024.6
15:05 Uhr

1022.7
12:35 Uhr
1023.6
12,000
20:15 Uhr
4,000
1.549
163
765
11:45 Uhr
3.0
11:40 Uhr

02:51:00
0,5
0
11,3
12:45 Uhr

2
11.6
16:50 Uhr
6.7
03:10 Uhr
9.7
03:30 Uhr
2
12:25 Uhr
4.7
00:00 Uhr
5.9
00:00 Uhr
1.6
12:50 Uhr
25
Zeitraffer
16:20
14.6
16:55 Uhr
10.7
01:25 Uhr

93
00:00 Uhr
72
11:00 Uhr
1032.3
23:55 Uhr

1024.2
00:00 Uhr
1027.4
2,400
06:35 Uhr
0,600
0.914
102
459
13:10 Uhr
2.0
12:50 Uhr

00:04:00
0,7
0
11,3
12:00 Uhr

2
11.0
12:50 Uhr
8.5
02:30 Uhr
10.7
01:25 Uhr
2
00:00 Uhr
0.0
00:00 Uhr
3.3
19:55 Uhr
0.0
00:00 Uhr
26
Zeitraffer
16:22
20.2
14:55 Uhr
8.2
04:30 Uhr

93
04:35 Uhr
39
15:45 Uhr
1035.2
09:35 Uhr

1032.3
00:00 Uhr
1034.0
0,000
00:00 Uhr
0,000
2.718
337
884
11:40 Uhr
4.1
13:30 Uhr

07:32:00
2,2
1
17,7
12:15 Uhr

3
11.6
08:55 Uhr
5.0
15:45 Uhr
8.2
04:30 Uhr
2
00:00 Uhr
1.8
18:30 Uhr
5.1
18:30 Uhr
0.3
15:35 Uhr
27
Zeitraffer
16:24
23.2
11:50 Uhr
8.3
05:20 Uhr

86
04:20 Uhr
36
09:55 Uhr
1034.9
00:35 Uhr

1028.6
19:35 Uhr
1032.0
0,000
00:00 Uhr
0,000
2.667
260
888
13:00 Uhr
4.2
12:25 Uhr

06:52:00
0,8
0
16,1
22:25 Uhr

3
10.3
22:15 Uhr
5.4
09:55 Uhr
8.3
05:20 Uhr
2
21:50 Uhr
2.6
15:50 Uhr
5.6
15:55 Uhr
0.5
16:05 Uhr
28
Zeitraffer
16:27
19.7
15:25 Uhr
11.7
23:50 Uhr

73
06:50 Uhr
37
15:30 Uhr
1030.6
00:50 Uhr

1028.2
17:00 Uhr
1029.6
0,000
00:00 Uhr
0,000
2.642
214
954
13:50 Uhr
3.8
12:55 Uhr

03:52:00
4,5
1
30,6
17:10 Uhr

5
9.9
00:00 Uhr
4.2
15:55 Uhr
11.6
22:30 Uhr
2
00:00 Uhr
3.8
18:00 Uhr
5.9
16:15 Uhr
3.0
17:15 Uhr
29
Zeitraffer
16:29
20.2
15:40 Uhr
8.4
05:10 Uhr

83
05:15 Uhr
32
11:10 Uhr
1030.9
07:35 Uhr

1026.2
20:15 Uhr
1028.8
0,000
00:00 Uhr
0,000
2.921
263
921
12:15 Uhr
4.4
12:15 Uhr

07:22:00
3,0
1
22,5
14:00 Uhr

4
8.1
20:45 Uhr
1.8
11:10 Uhr
7.5
04:05 Uhr
0
00:00 Uhr
4.2
16:10 Uhr
5.9
10:15 Uhr
2.2
12:25 Uhr
30
Zeitraffer
16:31
18.1
12:40 Uhr
8.4
05:00 Uhr

78
04:35 Uhr
39
16:05 Uhr
1026.7
01:45 Uhr

1022.5
19:45 Uhr
1024.8
0,000
00:00 Uhr
0,000
2.845
216
933
11:40 Uhr
3.9
12:15 Uhr

05:09:00
5,4
1
37,0
11:35 Uhr

5
6.4
00:00 Uhr
3.1
15:35 Uhr
8.4
05:00 Uhr
0
00:00 Uhr
5.9
10:10 Uhr
5.9
00:05 Uhr
3.5
11:55 Uhr
31
Zeitraffer
16:33
21.8
16:25 Uhr
9.6
04:00 Uhr

83
03:50 Uhr
37
16:30 Uhr
1023.6
00:00 Uhr

1020.5
16:10 Uhr
1022.0
0,000
00:00 Uhr
0,000
2.667
202
803
12:30 Uhr
4.4
12:10 Uhr

03:12:00
4,7
1
32,2
17:00 Uhr

5
10.0
11:15 Uhr
6.2
00:00 Uhr
9.6
04:00 Uhr
0
00:00 Uhr
5.9
11:30 Uhr
5.9
00:00 Uhr
3.3
18:15 Uhr
Stationsstandorte || Wetterblog || Wissenswertes || Downloads || Seitenhistorie || Partner || Impressum / Datenschutz